Regional Weather Roundup
Issued by NWS Albany, NY

Home | Current Version | Previous Version | Text Only | Print | Product List | Glossary On
Versions: 1 2 3 4 5 6 7 8 9 10 11 12 13 14 15 16 17 18 19 20 21 22 23 24 25 26 27 28
000
ASUS41 KALY 071310
RWRALY

NEW YORK STATE HOURLY WEATHER ROUNDUP
NATIONAL WEATHER SERVICE ALBANY NY
800 AM EST WED DEC 07 2016

NOTE: "FAIR" INDICATES FEW OR NO CLOUDS BELOW 12,000 FEET WITH NO
SIGNIFICANT WEATHER AND/OR NO OBSTRUCTIONS TO VISIBILITY.

NYZ032-033-038>043-046>054-057>066-NYZ062>081-082-084-071400-
EAST


CITY           SKY/WX    TMP DP  RH WIND       PRES   REMARKS
ALBANY         CLOUDY    33  32  96 CALM      29.96R FOG
GLENS FALLS    FOG       34  31  88 CALM      29.95S VSB 1
POUGHKEEPSIE   CLOUDY    34  33  96 CALM      29.96S FOG
NEWBURGH       CLOUDY    34  34 100 CALM      29.96S FOG
MONTGOMERY     CLOUDY    35  33  92 NW3       29.96R FOG
WHITE PLAINS   CLOUDY    38  35  89 CALM      29.95R
ISLIP          CLOUDY    41  39  93 NE12      29.93S
NEW YORK CITY  CLOUDY    42  38  85 N8        29.96R
CENTRAL PARK   CLOUDY    40  37  89 NE6       29.98R
$$

NYZ005>009-017-018-044>046-055-056-071400-
CENTRAL


CITY           SKY/WX    TMP DP  RH WIND       PRES   REMARKS
FULTON         LGT RAIN  38  36  92 SW8       29.89R FOG     WCI  32
SYRACUSE       CLOUDY    38  36  92 SW9       29.90R WCI  31
ROME           LGT RAIN  33  33 100 E6        29.92S FOG     WCI  28
ELMIRA         MOCLDY    35  32  88 SW5       29.92R WCI  31
BINGHAMTON     CLOUDY    32  32 100 SW7       29.89R WCI  26
MONTICELLO     CLOUDY    32  32 100 CALM      29.94R
$$

NYZ026>034-041>043-087-071400-
NORTH


CITY           SKY/WX    TMP DP  RH WIND       PRES   REMARKS
WATERTOWN      LGT RAIN  38  36  92 S12G20    29.85R FOG     WCI  30
FORT DRUM      NOT AVBL
OGDENSBURG     CLOUDY    36  36  98 S8        29.82S WCI  30
MASSENA        FRZ RAIN  30  28  92 E3        29.85F FOG
SARANAC LAKE   CLOUDY    32  28  85 SW9       29.80S WCI  24
PLATTSBURGH    CLOUDY    32  30  92 SW5       29.88S WCI  27
$$

NYZ001>004-010>016-019>021-085-071400-
WEST


CITY           SKY/WX    TMP DP  RH WIND       PRES   REMARKS
NIAGARA FALLS  CLOUDY    36  26  67 W16G26    29.92R WCI  26
BUFFALO        MOCLDY    35  27  72 W15G26    29.91R WCI  25
DUNKIRK        CLOUDY    39  29  67 W16G24    29.94R WCI  30
JAMESTOWN      CLOUDY    34  27  75 SW10      29.92R WCI  26
WELLSVILLE     CLOUDY    36  30  79 VRB5      29.91R WCI  32
ROCHESTER      CLOUDY    37  33  85 W8        29.91R WCI  31
PENN YAN       CLOUDY    39  32  76 SW7       29.90R WCI  34
$$

             KEY
       WCI = WIND CHILL INDEX
       VSB = VISIBILITY
       HX  = HEAT INDEX
$$




USA.gov is the U.S. government's official web portal to all federal, state and local government web resources and services.